Regional Weather Roundup
Issued by NWS

Home | Current Version | Previous Version | Text Only | Print | Product List | Glossary Off
Versions: 1 2 3 4 5 6 7 8 9 10 11 12 13 14 15 16 17 18 19 20 21 22 23 24 25 26 27 28 29 30 31 32 33 34 35 36 37 38 39 40 41 42 43 44 45 46 47 48 49 50

000
ASUS43 KMKX 260821
RWRWI

WISCONSIN REGIONAL WEATHER ROUNDUP
NATIONAL WEATHER SERVICE MILWAUKEE/SULLIVAN WI
300 AM CDT WED APR 26 2017

NOTE: "FAIR" INDICATES FEW OR NO CLOUDS BELOW 12,000 FEET WITH NO
SIGNIFICANT WEATHER AND/OR OBSTRUCTIONS TO VISIBILITY.

WIZ001-002-006>008-014>016-023>028-260900-
NORTHWEST WISCONSIN

CITY           SKY/WX    TMP DP  RH WIND       PRES   REMARKS
SUPERIOR ARPT  DRIZZLE   34  32  93 E21G28    29.69F WCI  23
ASHLAND        CLOUDY    32  30  92 NE17G28   29.69F WCI  21
HAYWARD        LGT RAIN  33  30  88 NE20      29.58F WCI  21
SIREN          DRIZZLE   35  33  94 NE15      29.57F WCI  25
CUMBERLAND     LGT RAIN  36  34  93 NE14      29.52F WCI  27
RICE LAKE      LGT RAIN  38  37  95 N16       29.52F WCI  29
CHETEK         RAIN      41  40  96 NE10      29.51F
LADYSMITH      LGT RAIN  40  39  94 N12       29.54F WCI  33
EAU CLAIRE     LGT RAIN  46  45  96 NE12      29.45F
MENOMONIE      DRIZZLE   45  45  99 N12       29.47F
NEW RICHMOND   LGT RAIN  42  40  95 NE15      29.49F
OSCEOLA        LGT RAIN  40  40 100 NE17G23   29.54F WCI  32
$$

WIZ003>005-009-010-017-018-260900-
NORTH CENTRAL WISCONSIN

CITY           SKY/WX    TMP DP  RH WIND       PRES   REMARKS
MANITOWISH WTR RAIN      34  34 100 N10G18    29.58F WCI  26
ARBOR VITAE    RAIN      39  38  94 NE9       29.56F WCI  33
WOODRUFF       RAIN      39  38  94 NE9       29.56F WCI  33
RHINELANDER    LGT RAIN  45  45 100 VRB6      29.55F
EAGLE RIVER    LGT RAIN  40  40 100 NE10      29.56F WCI  33
LAND O LAKES   LGT SNOW  37  37  99 NE9       29.61F WCI  31
PHILLIPS       LGT RAIN  36  36 100 NE10      29.55F WCI  28
TOMAHAWK       DRIZZLE   44  43  95 N7        29.54F
MEDFORD        DRIZZLE   52  51  97 NE10      29.48F
MERRILL        CLOUDY    54  54 100 E6        29.51F
$$

WIZ029-030-035-036-043>047-260900-
CENTRAL WISCONSIN

CITY           SKY/WX    TMP DP  RH WIND       PRES   REMARKS
WAUSAU         LGT RAIN  55  54  96 E7        29.48F
MOSINEE        RAIN      54  54 100 E10       29.49F
MARSHFIELD     LGT RAIN  56  52  86 E10       29.45F
STEVENS POINT  CLOUDY    56  55  97 E9        29.49F
WAUPACA        RAIN      59  55  86 E6        29.49F
WAUTOMA        LGT RAIN  60  56  86 SE6       29.46F
WISC RAPIDS    LGT RAIN  58  56  93 E5        29.46F
CAMP DOUGLAS   DRIZZLE   55  54  94 CALM      29.43F
$$

WIZ011>013-019>022-031-037>040-048>050-260900-
NORTHEAST WISCONSIN

CITY           SKY/WX    TMP DP  RH WIND       PRES   REMARKS
ANTIGO         CLOUDY    51  50  97 E14       29.50F
SHAWANO        DRIZZLE   53  50  89 E10       29.52F
OCONTO         CLOUDY    48  45  90 NE5       29.54F
STURGEON BAY   CLOUDY    52  48  86 E8        29.55F
GREEN BAY      CLOUDY    53  53 100 NE5       29.52F
MANITOWOC      CLOUDY    58  51  78 S13G24    29.53F
APPLETON       DRIZZLE   55  50  82 SE7       29.49F
CLINTONVILLE   RAIN      54  52  94 E3        29.51F
OSHKOSH        LGT RAIN  60  53  77 SE6       29.48F
$$

WIZ032>034-041-042-053>061-260900-
SOUTHWEST WISCONSIN

CITY           SKY/WX    TMP DP  RH WIND       PRES   REMARKS
LA CROSSE      CLOUDY    57  56  96 CALM      29.40F
SPARTA         DRIZZLE   53  53 100 CALM      29.44F
VIROQUA        CLOUDY    55  54  97 E5        29.42F
BOSCOBEL       CLOUDY    58  56  93 CALM      29.41F
PRAIRIE DU CHI CLOUDY    57  56  96 NW3       29.40S
PLATTEVILLE    CLOUDY    61  56  84 SE8       29.41F
$$

WIZ056-057-062-063-064-067-068-260900-
SOUTH CENTRAL WISCONSIN

CITY           SKY/WX    TMP DP  RH WIND       PRES   REMARKS
REEDSBURG      CLOUDY    62  53  73 CALM      29.42F
BARABOO/DELLS  CLOUDY    61  52  72 SE3       29.43F
LONE ROCK      PTCLDY    59  54  83 NE3       29.41F
MINERAL POINT  CLOUDY    61  55  82 SE7       29.42F
MADISON        CLOUDY    63  54  72 CALM      29.44F
MIDDLETON      CLOUDY    64  55  72 SE5       29.45F
WATERTOWN      MOCLDY    61  54  75 SE7       29.46F
MONROE         MOCLDY    63  52  67 S7        29.44F
JANESVILLE     CLOUDY    68  52  56 S10       29.45F
$$

WIZ051-052-058>065-066-070>072-260900-
SOUTHEAST WISCONSIN

CITY           SKY/WX    TMP DP  RH WIND       PRES   REMARKS
MILWAUKEE      LGT RAIN  61  53  75 S9        29.50F
WAUKESHA       PTCLDY    59  50  72 SE7       29.49F
MILWAUKEE/TIMM CLOUDY    59  48  67 SE6       29.50F
RACINE         CLOUDY    56  48  74 S13       29.52F
KENOSHA        MOCLDY    61  52  72 SE8       29.49F
FOND DU LAC    CLOUDY    62  51  67 SE13      29.48F
SHEBOYGAN      CLOUDY    56  51  84 S6        29.52F
WEST BEND      CLOUDY    59  52  77 SE3       29.50F
JUNEAU         MOCLDY    60  53  77 E8        29.47F
$$

LSZ147-162-260900-
LAKE SUPERIOR

STATION/POSITION TIME  TEMP    WIND        PRES    WAVE
                       AIR SEA DIR/SP/G            HT/PER
                 (UTC) (F)     (DEG/KT/KT) (MB)    (FT/S)
DEVILS ISLAND    0800   31      50/ 10/ 11 1007.4F
SAXON HARBOR     0759   35      40/ 25/ 27 1004.7F
$$

LMZ867-665-643>646-260900-
LAKE MICHIGAN

STATION/POSITION TIME  TEMP    WIND        PRES    WAVE
                       AIR SEA DIR/SP/G            HT/PER
                 (UTC) (F)     (DEG/KT/KT) (MB)    (FT/S)
CHAMBERS ISLAND  0740   41      20/  9/ 11 1001.4F
N MID LAKE BUOY  0750   41 37   90/ 10/ 12 1003.1F   2/ 4
NORTHPORT PIER   0740   43      80/  8/ 12 1002.0F
SISTER BAY       0606   47     110/  5/  7   N/A
KEWAUNEE LAKESHO 0754   54     130/  4/ 12  999.9F
SHEBOYGAN LAKESH 0800   51     180/ 13/ 17  999.5F
PORT WASHINGTON  0740   52     200/  3/  8 1000.7F
MILWAUKEE LAKESH 0800   50     120/  8/  8   N/A
S MID LAKE BUOY  0750   49 41  110/ 14/ 14 1000.1F   1/ 2
KENOSHA   LAKESH 0800   53     170/ 13/ 14  999.3
$$

TC  - TEMPERATURE IN CELSIUS
VSB - VISIBILITY IN STATUTE MILES
WCI - WIND CHILL INDEX
HX  - HEAT INDEX




USA.gov is the U.S. government's official web portal to all federal, state and local government web resources and services.